Regional Weather Roundup
Issued by NWS Wakefield, VA

Home | Current Version | Previous Version | Graphics & Text | Print | Product List | Glossary On
Versions: 1 2 3 4 5 6 7 8 9 10 11 12 13 14 15 16 17 18 19 20 21 22 23 24 25 26 27
000
ASUS41 KAKQ 241110
RWRAKQ

REGIONAL WEATHER ROUNDUP
NATIONAL WEATHER SERVICE WAKEFIELD VA
700 AM EDT THU APR 24 2014

Note: "fair" indicates few or no clouds below 12,000 feet with no
significant weather and/or obstructions to visibility. * = Denotes
station may not report precipitation (e.g., rain,snow,etc.),
thunder or fog.

VAZ042-051-052>054-056-241200-
NORTHERN VIRGINIA

CITY           SKY/WX    TMP DP  RH WIND       PRES   REMARKS
WASH NATIONAL  CLEAR     46  23  40 NW10      30.10R
DULLES         PTCLDY    39  22  50 NW9       30.10R
FORT BELVOIR   CLEAR     43  22  43 NW8       30.11R
QUANTICO       PTCLDY    45  25  45 N7        30.11R
FREDERICKSBRG* CLEAR     44  29  57 CALM      30.10R
STAFFORD*      CLEAR     40  28  62 NW6       30.14R
WARRENTON      CLEAR     41  32  72 CALM      30.10R
CULPEPER*      CLEAR     39  27  60 CALM      30.11R
MANASSAS*      CLEAR     39  28  65 NW6       30.10R
LEESBURG*      CLEAR     41  27  56 N6        30.11R
WINCHESTER     CLEAR     37  21  52 NW10      30.10S
$$

VAZ048-049-060>072-079>083-241200-
CENTRAL AND SOUTH CENTRAL VIRGINIA...AND NORTH CENTRAL NORTH CAROLINA

CITY           SKY/WX    TMP DP  RH WIND       PRES   REMARKS
RICHMOND       PTCLDY    43  30  60 NW5       30.10R
CHESTERFIELD*  SUNNY     36  23  60 CALM      30.11R
HANOVER        CLEAR     35  33  92 CALM      30.12R
TAPPAHANNOCK*  CLEAR     41  27  55 NW3       30.09R
CHARLOTTSVILLE CLEAR     45  25  45 NW6       30.09R
ORANGE*        CLEAR     34  32  93 CALM      30.12R
LOUISA*        CLEAR     30  28  93 W3        30.09R
FARMVILLE*     CLEAR     37  34  87 CALM      30.09R
SOUTH HILL*    CLEAR     39  34  81 N5        30.15R
ROANOKE RAPIDS SUNNY     41  37  87 CALM      30.11R
RALEIGH        PTCLDY    42  33  70 CALM      30.10R
$$

VAZ088>098-241200-
SOUTHEAST VIRGINIA

CITY           SKY/WX    TMP DP  RH WIND       PRES   REMARKS
NORFOLK        CLEAR     49  32  52 VRB7      30.07R
VIRGINIA BEACH PTCLDY    49  31  49 N15       30.07R
NORFOLK NAVAL  PTCLDY    49  30  48 NW14      30.09R
WEST POINT*    CLEAR     42  31  65 CALM      30.11R
NEWPORT NEWS   CLEAR     49  30  48 N6        30.09R
LANGLEY AFB    CLEAR     47  30  52 N10       30.09R
FORT EUSTIS    CLEAR     48  33  56 N7        30.08R
WILLIAMSBURG*  CLEAR     43  34  70 N6        30.10R
FRANKLIN*      CLEAR     43  34  70 CALM      30.10R
WAKEFIELD      CLEAR     36  32  85 N3        30.10R
$$

VAZ020-022-025-037-045-241200-
WESTERN AND SOUTHWEST VIRGINIA

CITY           SKY/WX    TMP DP  RH WIND       PRES   REMARKS
STAUNTON*      CLEAR     33  29  86 CALM      30.12R
HOT SPRINGS VA CLOUDY    34  27  75 NW6       30.09R
LYNCHBURG      PTCLDY    41  31  67 W3        30.11R
DANVILLE       CLEAR     38  33  82 S5        30.10R
MARTINSVILLE   CLEAR     32  31  96 CALM      30.12R
ROANOKE        MOCLDY    43  31  62 CALM      30.11R
BLACKSBURG     PTCLDY    37  34  87 CALM      30.11R
DUBLIN*        CLEAR     37  32  84 CALM      30.10R
MARION*        CLEAR     32  28  85 CALM      30.10R
HILLSVILLE*    CLEAR     39  25  56 CALM      30.11R
RICHLANDS*     SUNNY     45  30  55 E5        30.05S
WISE*          CLEAR     43  28  56 CALM      30.06S
ABINGDON*      CLEAR     42  29  61 E7        30.06S
$$

MDZ021>025-VAZ099-100-241200-
SOUTHERN MARYLAND AND THE DELMARVA PENINSULA

CITY           SKY/WX    TMP DP  RH WIND       PRES   REMARKS
PATUXENT RIVER PTCLDY    45  27  49 NW10      30.07R
BAY BRIDGE APT CLEAR     45  28  53 NW14G20   30.07R
LEONARDTOWN    CLEAR     43  27  52 W6        30.09R
DOVER          CLEAR     41  28  60 W10       30.00R
GEORGETOWN     CLEAR     44  28  53 NW5       30.04R
EASTON         CLEAR     46  30  53 NW12      30.09R
CAMBRIDGE      CLEAR     48  28  46 NW12G21   30.05R
SALISBURY      CLEAR     47  29  49 NW9       30.04R
OCEAN CITY     CLEAR     42  31  64 NW5       30.03R
WALLOPS ISLAND CLEAR     46  33  60 NW6       30.05R
ACCOMACK*      CLEAR     46  30  53 N14G21    30.05R
$$

NCZ012>017-030>032-241200-
EASTERN NORTH CAROLINA

CITY           SKY/WX    TMP DP  RH WIND       PRES   REMARKS
ELIZABETH CITY CLEAR     47  33  58 NW8       30.08R
AHOSKIE*       CLEAR     37  34  88 CALM      30.11R
EDENTON*       CLEAR     43  35  74 CALM      30.09R
CURRITUCK*     CLEAR     45  32  61 NW3       30.08R
KILL DEVIL HLS CLEAR     49  37  63 N7        30.06R
MANTEO         CLEAR     48  37  65 N12       30.07R
CAPE HATTERAS  CLEAR     51  35  54 N10G17    30.07R
GOLDSBORO      CLEAR     47  37  70 NE6       30.08R
WASHINGTON     CLEAR     44  37  76 CALM      30.09R
GREENVILLE     CLEAR     45  36  70 CALM      30.11R
NEW BERN       CLEAR     50  38  63 NE7       30.09R
WILMINGTON     CLEAR     50  40  68 NE9       30.06R
$$

VAZ048-241200-
ELSEWHERE

CITY           SKY/WX    TMP DP  RH WIND       PRES   REMARKS
HARRISBURG PA  CLEAR     42  18  37 NW9       30.06R
BALTIMORE      PTCLDY    40  27  59 W8        30.07R
ANNAPOLIS      CLEAR     45  28  51 NW8       30.08R
ANDREWS AFB    CLEAR     44  24  45 NW12      30.09R
WILMINGTON DE  CLEAR     42  23  46 NW12      30.04R
PHILADELPHIA   CLEAR     42  21  43 W12       30.02R
WILDWOOD NJ*   CLEAR     46  21  36 NW12G22   30.02R
ATLANTIC CITY  CLEAR     42  25  50 W13       29.98R
HENDERSON NC   CLEAR     38  32  79 N3        30.09R
GREENSBORO     PTCLDY    45  32  60 CALM      30.08R
ROCKY MOUNT    CLEAR     41  35  79 CALM      30.10R
FAYETTEVILLE   CLEAR     45  37  73 N6        30.08R
CHARLOTTE      PTCLDY    51  32  48 E6        30.09R
$$

VAZ100-241200-
MARINE

STATION/POSITION TIME  TEMP    WIND        PRES    WAVE   SWELL
                       AIR SEA DIR/SP/G            HT/PER HT/PER
                 (UTC) (F)     (DEG/KT/KT) (MB)    (FT/S) (FT/S)
44066 TX TWR #4  1100   45 45  310/ 23/ 29 1010.1R   8/ 7
CAPE MAY NJ      1100   48 56  330/ 12/ 21 1015.7R
LEWES DE         1100   46 50  310/ 17/ 21 1016.0R
15NM E FENWICK I 1100   46 46              1015.5R   4/ 5
OCEAN-CITY-INLET 1100   44 48  320/ 10/ 12 1016.2R
WACHAPREAGUE VA  1100   48 55  340/  6/  9 1016.9S
THOMAS POINT MD  1100   45 52  310/ 13/ 15 1018.9R
GOOSES REEF MD   1100   47     320/ 14/ 17   N/A
COVE POINT MD    1100   46     330/ 15/ 19 1017.8R
SOLOMONS ISLAND  1100      55                N/A
BISHOPS HEAD MD  1100   47 52  320/ 13/ 17 1017.6R
PINEY POINT MD   1100          350/ 14/ 16   N/A
POTOMAC MD       1100   48     340/ 14/ 17 1017.4S
CAMBRIDGE MD     1100   48 56  320/ 17/ 21 1017.3R
LEWISETTA VA     1100   48 56  350/ 18/ 23 1018.0R
RAPPAHANNOCK LGT 1100          340/ 23/ 26 1017.9R
STINGRAY PT      1100   48     330/ 12/ 17 1018.1R
YORK RVR RNG VA  1100   48     330/ 11/ 12 1017.7R
YORKTOWN VA      1100   48 56  320/ 11/ 14 1018.2R
JAMESTOWN VA     1100   46     350/  4/  8   N/A
DOMINION TERM VA 1100   49     330/  4/ 11 1018.4R
KIPTOPEKE VA     1100      55  360/ 13/ 21   N/A
CHES BAY BRIDGE  1100   50 54  320/ 19/ 22 1018.1R
CAPE HENRY VA    1100   50     320/ 17/ 19   N/A
CHESAPEAKE LGHT  1000   49     340/ 18/ 20 1017.6R
WILLOUBY STN VA  1100   48     340/ 12/ 16 1017.5R
S CRANEY ISL VA  1100          310/  8/ 12 1018.5S
CAPE HENRY BUOY  1100      47                N/A     3/ 4
1ST LANDING BUOY 1100      49                N/A     3/ 4   2/15
64NM E OF VA BCH 1100   49 48  330/ 17/ 21 1016.8R   7/ 6
DUCK PIER NC     1100   51 51   10/ 15/ 19 1016.9R
44100 DUCK FRF   1100      49                N/A     4/ 6   2/14
44056 DUCK FRF   1100      51                N/A     4/ 6   2/14
OREGON INLET NC  1100   49 55  350/  7/ 11 1018.0R
HATTERAS NC      1100   53 61   10/ 18/ 22 1018.2R
DIAMOND SHLS NC  1100   55 74   10/ 21/ 25 1017.2R   6/ 6   2/12
CAPE LOOKOUT NC  1000   57      10/ 13/ 16 1016.6R
FRYING PAN SHLS  1100   66 68   40/ 14/ 16 1016.2R   3/ 9   2/ 9
$$



USA.gov is the U.S. government's official web portal to all federal, state and local government web resources and services.